Location: Pettit
(39.0209°N, 79.7181°W)
Time: 03:28:52
(UTC+00:00)

Hubble Space Telescope - Pass Details

Date: 26 April 2026
Orbit: 473 x 476 km, 28.5° (Epoch: 11 May)

Event Time Altitude Azimuth Distance (km) Brightness Sun altitude
Rises 01:16:30 0° 234° (SW) 2,506 4.5 -13.3°
Reaches altitude 10° 01:19:22 10° 211° (SSW) 1,630 3.2 -13.8°
Maximum altitude 01:21:38 15° 174° (S) 1,337 2.4 -14.2°
Enters shadow 01:21:52 15° 169° (S) 1,341 2.4 -14.2°
